User: anonymous   Login
Location: Unspecified
(0.0000°N, 0.0000°E)
Time: 18:59:17
(UTC+02:00)
Language:

Cosmos 1758 - Orbit

View from above orbital plane
View from above orbital plane
View from above satellite
View from above satellite

Ground track
Ground track

The orbit data is extracted from the following two-line orbital elements,

1 16791U 86046A   17268.49997166  .00000542  00000-0  36497-4 0  9997
2 16791  82.4686 294.3370 0018067 106.5604 253.7608 15.04503021700764
Epoch (UTC): 25 September 2017 11:59:57
Eccentricity: 0.0018067
inclination: 82.4686°
perigee height: 540 km
apogee height: 565 km
right ascension of ascending node: 294.3370°
argument of perigee: 106.5604°
revolutions per day: 15.04503021
mean anomaly at epoch: 253.7608°
orbit number at epoch: 70076

The dashed part of the orbit path shows where the satellite is in the earth's shadow,  

DLR